Location: Borowce
(50.8255°N, 19.6209°E)
Time: 08:34:17
(UTC+00:00)

BlueWalker 3 - Pass Details

Date: 19 May 2025
Orbit: 460 x 472 km, 53.2° (Epoch: 16 June)

Event Time Altitude Azimuth Distance (km) Brightness Sun altitude
Rises 21:05:47 0° 287° (WNW) 2,497 6.1 -16.4°
Reaches altitude 10° 21:08:17 10° 271° (W) 1,620 4.8 -16.5°
Maximum altitude 21:11:03 20° 222° (SW) 1,118 3.4 -16.7°
Enters shadow 21:11:11 20° 218° (SW) 1,119 3.4 -16.7°
